軌道要素
Epoch 2024 Sept. 7.0 TT = JDT 2460560.5
T 2024 Aug. 23.95763 TT Rudenko
q 2.5286741 (2000.0) P Q
n 0.12145993 Peri. 310.69152 +0.97313991 +0.22565631
a 4.0381338 Node 36.33434 -0.18111956 +0.87267876
e 0.3738013 Incl. 4.41248 -0.14210705 +0.43302542
P 8.11
From 219 observations 2000 Sept. 23-2017 Jan. 1, mean residual 0".7.
|